Back to catalog

DELTA 1 DEB

AliveSSO
NORAD 12178·DEBRIS·🇺🇸 United States

Launched Mar 5, 1978 from Vandenberg Space Force Base

Loading…

Next Passes (next 24 hours)

TLE

FreshSource: Space-Track

Epoch: Sep 14, 2026, 09:35 UTC

1 12178U 78026T   26257.39946208  .00000260  00000-0  22520-3 0  9997
2 12178  99.3616 132.7719 0060559 281.7044 254.2359 13.94815381317527

Track DELTA 1 DEB in real time with AllMySat

Download on the App Store